Year,Month,Day,Hour,Minute,Value (Times are PST for temperature in C)
2009,03,25,08,32,3.90
2009,03,25,08,33,3.90
2009,03,25,08,34,3.90
2009,03,25,08,35,4.00
2009,03,25,08,36,4.00
2009,03,25,08,37,4.00
2009,03,25,08,38,4.00
2009,03,25,08,39,4.00
2009,03,25,08,40,3.90
2009,03,25,08,41,3.90
2009,03,25,08,42,3.90
2009,03,25,08,43,3.90
2009,03,25,08,44,3.90
2009,03,25,08,45,3.90
2009,03,25,08,46,4.00
2009,03,25,08,47,4.00
2009,03,25,08,48,4.10
2009,03,25,08,49,4.10
2009,03,25,08,50,4.10
2009,03,25,08,51,4.20
2009,03,25,08,52,4.20
2009,03,25,08,53,4.30
2009,03,25,08,54,4.30
2009,03,25,08,55,4.30
2009,03,25,08,56,4.40
2009,03,25,08,57,4.40
2009,03,25,08,58,4.50
2009,03,25,08,59,4.50
2009,03,25,09,00,4.60
2009,03,25,09,01,4.60
2009,03,25,09,02,4.60
2009,03,25,09,03,4.70
2009,03,25,09,04,4.70
2009,03,25,09,05,4.70
2009,03,25,09,06,4.70
2009,03,25,09,07,4.70
2009,03,25,09,08,4.70
2009,03,25,09,09,4.70
2009,03,25,09,10,4.80
2009,03,25,09,11,4.80
2009,03,25,09,12,4.80
2009,03,25,09,13,4.80
2009,03,25,09,14,4.80
2009,03,25,09,15,4.80
2009,03,25,09,16,4.80
2009,03,25,09,17,4.80
2009,03,25,09,18,4.90
2009,03,25,09,19,4.90
2009,03,25,09,20,4.90
2009,03,25,09,21,4.90
2009,03,25,09,22,5.00
2009,03,25,09,23,5.00
2009,03,25,09,24,5.00
2009,03,25,09,25,5.10
2009,03,25,09,26,5.10
2009,03,25,09,27,5.10
2009,03,25,09,28,5.10
2009,03,25,09,29,5.00
2009,03,25,09,30,5.00
2009,03,25,09,31,5.00
2009,03,25,09,32,5.00
2009,03,25,09,33,5.00
2009,03,25,09,34,4.90
2009,03,25,09,35,4.90
2009,03,25,09,36,4.90
2009,03,25,09,37,4.90
2009,03,25,09,38,4.90
2009,03,25,09,39,4.90
2009,03,25,09,40,4.90
2009,03,25,09,41,4.90
2009,03,25,09,42,4.90
2009,03,25,09,43,4.90
2009,03,25,09,44,4.90
2009,03,25,09,45,4.90
2009,03,25,09,46,4.90
2009,03,25,09,47,4.90
2009,03,25,09,48,4.90
2009,03,25,09,49,4.90
2009,03,25,09,50,4.80
2009,03,25,09,51,4.80
2009,03,25,09,52,4.80
2009,03,25,09,53,4.80
2009,03,25,09,54,4.80
2009,03,25,09,55,4.90
2009,03,25,09,56,4.90
2009,03,25,09,57,4.90
2009,03,25,09,58,4.90
2009,03,25,09,59,4.90
2009,03,25,10,00,4.90
2009,03,25,10,01,4.90
2009,03,25,10,02,4.90
2009,03,25,10,03,4.90
2009,03,25,10,04,4.90
2009,03,25,10,05,4.90
2009,03,25,10,06,5.00
2009,03,25,10,07,5.00
2009,03,25,10,08,5.10
2009,03,25,10,09,5.10
2009,03,25,10,10,5.20
2009,03,25,10,11,5.20
2009,03,25,10,12,5.20
2009,03,25,10,13,5.20
2009,03,25,10,14,5.20
2009,03,25,10,15,5.30
2009,03,25,10,16,5.30
2009,03,25,10,17,5.40
2009,03,25,10,18,5.40
2009,03,25,10,19,5.40
2009,03,25,10,20,5.40
2009,03,25,10,21,5.40
2009,03,25,10,22,5.40
2009,03,25,10,23,5.40
2009,03,25,10,24,5.40
2009,03,25,10,25,5.40
2009,03,25,10,26,5.40
2009,03,25,10,27,5.40
2009,03,25,10,28,5.40
2009,03,25,10,29,5.40
2009,03,25,10,30,5.40
2009,03,25,10,31,5.50
2009,03,25,10,32,5.50
2009,03,25,10,33,5.60
2009,03,25,10,34,5.60
2009,03,25,10,35,5.60
2009,03,25,10,36,5.70
2009,03,25,10,37,5.70
2009,03,25,10,38,5.80
2009,03,25,10,39,5.80
2009,03,25,10,40,5.90
2009,03,25,10,41,5.80
2009,03,25,10,42,5.80
2009,03,25,10,43,5.80
2009,03,25,10,44,5.80
2009,03,25,10,45,5.80
2009,03,25,10,46,5.80
2009,03,25,10,47,5.80
2009,03,25,10,48,5.80
2009,03,25,10,49,5.80
2009,03,25,10,50,5.70
2009,03,25,10,51,5.70
2009,03,25,10,52,5.60
2009,03,25,10,53,5.60
2009,03,25,10,54,5.60
2009,03,25,10,55,5.60
2009,03,25,10,56,5.60
2009,03,25,10,57,5.60
2009,03,25,10,58,5.70
2009,03,25,10,59,5.80
2009,03,25,11,00,5.80
2009,03,25,11,01,5.70
2009,03,25,11,02,5.70
2009,03,25,11,03,5.80
2009,03,25,11,04,5.80
2009,03,25,11,05,5.90
2009,03,25,11,06,5.90
2009,03,25,11,07,5.90
2009,03,25,11,08,5.90
2009,03,25,11,09,5.80
2009,03,25,11,10,5.80
2009,03,25,11,11,5.80
2009,03,25,11,12,5.80
2009,03,25,11,13,5.80
2009,03,25,11,14,5.80
2009,03,25,11,15,5.80
2009,03,25,11,16,5.80
2009,03,25,11,17,5.80
2009,03,25,11,18,5.80
2009,03,25,11,19,5.80
2009,03,25,11,20,5.80
2009,03,25,11,21,5.80
2009,03,25,11,22,5.80
2009,03,25,11,23,5.80
2009,03,25,11,24,5.80
2009,03,25,11,25,5.70
2009,03,25,11,26,5.70
2009,03,25,11,27,5.70
2009,03,25,11,28,5.70
2009,03,25,11,29,5.70
2009,03,25,11,30,5.70
2009,03,25,11,31,5.70
2009,03,25,11,32,5.70
2009,03,25,11,33,5.70
2009,03,25,11,34,5.70
2009,03,25,11,35,5.70
2009,03,25,11,36,5.80
2009,03,25,11,37,5.80
2009,03,25,11,38,5.90
2009,03,25,11,39,5.90
2009,03,25,11,40,5.90
2009,03,25,11,41,5.90
2009,03,25,11,42,5.90
2009,03,25,11,43,5.90
2009,03,25,11,44,5.90
2009,03,25,11,45,5.90
2009,03,25,11,46,5.80
2009,03,25,11,47,5.80
2009,03,25,11,48,5.80
2009,03,25,11,49,5.70
2009,03,25,11,50,5.70
2009,03,25,11,51,5.80
2009,03,25,11,52,5.80
2009,03,25,11,53,5.90
2009,03,25,11,54,5.90
2009,03,25,11,55,5.90
2009,03,25,11,56,5.90
2009,03,25,11,57,5.80
2009,03,25,11,58,5.90
2009,03,25,11,59,5.90
2009,03,25,12,00,6.00
2009,03,25,12,01,6.00
2009,03,25,12,02,6.10
2009,03,25,12,03,6.20
2009,03,25,12,04,6.20
2009,03,25,12,05,6.10
2009,03,25,12,06,6.10
2009,03,25,12,07,6.00
2009,03,25,12,08,6.00
2009,03,25,12,09,5.90
2009,03,25,12,10,5.90
2009,03,25,12,11,5.90
2009,03,25,12,12,5.90
2009,03,25,12,13,5.90
2009,03,25,12,14,6.00
2009,03,25,12,15,6.10
2009,03,25,12,16,6.20
2009,03,25,12,17,6.20
2009,03,25,12,18,6.20
2009,03,25,12,19,6.20
2009,03,25,12,20,6.20
2009,03,25,12,21,6.20
2009,03,25,12,22,6.30
2009,03,25,12,23,6.30
2009,03,25,12,24,6.30
2009,03,25,12,25,6.30
2009,03,25,12,26,6.30
2009,03,25,12,27,6.30
2009,03,25,12,28,6.30
2009,03,25,12,29,6.40
2009,03,25,12,30,6.30
2009,03,25,12,31,6.30
2009,03,25,12,32,6.30
2009,03,25,12,33,6.20
2009,03,25,12,34,6.20
2009,03,25,12,35,6.20
2009,03,25,12,36,6.20
2009,03,25,12,37,6.20
2009,03,25,12,38,6.20
2009,03,25,12,39,6.30
2009,03,25,12,40,6.30
2009,03,25,12,41,6.30
2009,03,25,12,42,6.20
2009,03,25,12,43,6.20
2009,03,25,12,44,6.10
2009,03,25,12,45,6.10
2009,03,25,12,46,6.10
2009,03,25,12,47,6.20
2009,03,25,12,48,6.30
2009,03,25,12,49,6.30
2009,03,25,12,50,6.40
2009,03,25,12,51,6.40
2009,03,25,12,52,6.40
2009,03,25,12,53,6.50
2009,03,25,12,54,6.50
2009,03,25,12,55,6.50
2009,03,25,12,56,6.40
2009,03,25,12,57,6.50
2009,03,25,12,58,6.50
2009,03,25,12,59,6.50
2009,03,25,13,00,6.50
2009,03,25,13,01,6.40
2009,03,25,13,02,6.30
2009,03,25,13,03,6.20
2009,03,25,13,04,6.20
2009,03,25,13,05,6.30
2009,03,25,13,06,6.30
2009,03,25,13,07,6.40
2009,03,25,13,08,6.50
2009,03,25,13,09,6.60
2009,03,25,13,10,6.70
2009,03,25,13,11,6.60
2009,03,25,13,12,6.50
2009,03,25,13,13,6.50
2009,03,25,13,14,6.50
2009,03,25,13,15,6.50
2009,03,25,13,16,6.50
2009,03,25,13,17,6.60
2009,03,25,13,18,6.60
2009,03,25,13,19,6.50
2009,03,25,13,20,6.50
2009,03,25,13,21,6.40
2009,03,25,13,22,6.40
2009,03,25,13,23,6.30
2009,03,25,13,24,6.30
2009,03,25,13,25,6.30
2009,03,25,13,26,6.30
2009,03,25,13,27,6.30
2009,03,25,13,28,6.40
2009,03,25,13,29,6.50
2009,03,25,13,30,6.50
2009,03,25,13,31,6.50
2009,03,25,13,32,6.40
2009,03,25,13,33,6.30
2009,03,25,13,34,6.30
2009,03,25,13,35,6.30
2009,03,25,13,36,6.30
2009,03,25,13,37,6.30
2009,03,25,13,38,6.30
2009,03,25,13,39,6.40
2009,03,25,13,40,6.50
2009,03,25,13,41,6.60
2009,03,25,13,42,6.70
2009,03,25,13,43,6.70
2009,03,25,13,44,6.70
2009,03,25,13,45,6.70
2009,03,25,13,46,6.70
2009,03,25,13,47,6.80
2009,03,25,13,48,6.80
2009,03,25,13,49,6.90
2009,03,25,13,50,7.00
2009,03,25,13,51,7.00
2009,03,25,13,52,7.00
2009,03,25,13,53,7.10
2009,03,25,13,54,7.10
2009,03,25,13,55,7.10
2009,03,25,13,56,7.10
2009,03,25,13,57,7.00
2009,03,25,13,58,7.00
2009,03,25,13,59,6.90
2009,03,25,14,00,7.00
2009,03,25,14,01,7.00
2009,03,25,14,02,7.10
2009,03,25,14,03,7.10
2009,03,25,14,04,7.10
2009,03,25,14,05,7.00
2009,03,25,14,06,7.00
2009,03,25,14,07,7.00
2009,03,25,14,08,6.90
2009,03,25,14,09,6.80
2009,03,25,14,10,6.90
2009,03,25,14,11,6.90
2009,03,25,14,12,7.00
2009,03,25,14,13,7.10
2009,03,25,14,14,7.10
2009,03,25,14,15,7.10
2009,03,25,14,16,7.20
2009,03,25,14,17,7.20
2009,03,25,14,18,7.20
2009,03,25,14,19,7.20
2009,03,25,14,20,7.20
2009,03,25,14,21,7.20
2009,03,25,14,22,7.20
2009,03,25,14,23,7.20
2009,03,25,14,24,7.20
2009,03,25,14,25,7.20
2009,03,25,14,26,7.20
2009,03,25,14,27,7.30
2009,03,25,14,28,7.30
2009,03,25,14,29,7.40
2009,03,25,14,30,7.40
2009,03,25,14,31,7.50
2009,03,25,14,32,7.60
2009,03,25,14,33,7.60
2009,03,25,14,34,7.60
2009,03,25,14,35,7.60
2009,03,25,14,36,7.60
2009,03,25,14,37,7.60
2009,03,25,14,38,7.70
2009,03,25,14,39,7.70
2009,03,25,14,40,7.70
2009,03,25,14,41,7.80
2009,03,25,14,42,7.80
2009,03,25,14,43,7.70
2009,03,25,14,44,7.60
2009,03,25,14,45,7.60
2009,03,25,14,46,7.50
2009,03,25,14,47,7.50
2009,03,25,14,48,7.50
2009,03,25,14,49,7.70
2009,03,25,14,50,7.70
2009,03,25,14,51,7.80
2009,03,25,14,52,7.80
2009,03,25,14,53,7.80
2009,03,25,14,54,7.90
2009,03,25,14,55,8.00
2009,03,25,14,56,8.00
2009,03,25,14,57,8.10
2009,03,25,14,58,8.10
2009,03,25,14,59,8.20
2009,03,25,15,00,8.10
2009,03,25,15,01,8.10
2009,03,25,15,02,8.10
2009,03,25,15,03,8.10
2009,03,25,15,04,8.10
2009,03,25,15,05,8.10
2009,03,25,15,06,8.20
2009,03,25,15,07,8.10
2009,03,25,15,08,8.10
2009,03,25,15,09,8.00
2009,03,25,15,10,8.00
2009,03,25,15,11,8.00
2009,03,25,15,12,8.00
2009,03,25,15,13,8.00
2009,03,25,15,14,8.00
2009,03,25,15,15,7.90
2009,03,25,15,16,7.80
2009,03,25,15,17,7.80
2009,03,25,15,18,7.70
2009,03,25,15,19,7.70
2009,03,25,15,20,7.70
2009,03,25,15,21,7.80
2009,03,25,15,22,7.80
2009,03,25,15,23,7.80
2009,03,25,15,24,7.80
2009,03,25,15,25,7.90
2009,03,25,15,26,8.00
2009,03,25,15,27,8.10
2009,03,25,15,28,8.10
2009,03,25,15,29,8.10
2009,03,25,15,30,8.10
2009,03,25,15,31,8.00
2009,03,25,15,32,8.00
2009,03,25,15,33,8.00
2009,03,25,15,34,8.10
2009,03,25,15,35,8.10
2009,03,25,15,36,8.20
2009,03,25,15,37,8.30
2009,03,25,15,38,8.30
2009,03,25,15,39,8.30
2009,03,25,15,40,8.30
2009,03,25,15,41,8.40
2009,03,25,15,42,8.40
2009,03,25,15,43,8.40
2009,03,25,15,44,8.40
2009,03,25,15,45,8.40
2009,03,25,15,46,8.40
2009,03,25,15,47,8.40
2009,03,25,15,48,8.40
2009,03,25,15,49,8.30
2009,03,25,15,50,8.40
2009,03,25,15,51,8.40
2009,03,25,15,52,8.50
2009,03,25,15,53,8.50
2009,03,25,15,54,8.60
2009,03,25,15,55,8.50
2009,03,25,15,56,8.50
2009,03,25,15,57,8.40
2009,03,25,15,58,8.30
2009,03,25,15,59,8.30
2009,03,25,16,00,8.40
2009,03,25,16,01,8.40
2009,03,25,16,02,8.40
2009,03,25,16,03,8.40
2009,03,25,16,04,8.40
2009,03,25,16,05,8.40
2009,03,25,16,06,8.50
2009,03,25,16,07,8.50
2009,03,25,16,08,8.40
2009,03,25,16,09,8.40
2009,03,25,16,10,8.30
2009,03,25,16,11,8.30
2009,03,25,16,12,8.20
2009,03,25,16,13,8.30
2009,03,25,16,14,8.30
2009,03,25,16,15,8.30
2009,03,25,16,16,8.30
2009,03,25,16,17,8.30
2009,03,25,16,18,8.40
2009,03,25,16,19,8.40
2009,03,25,16,20,8.40
2009,03,25,16,21,8.40
2009,03,25,16,22,8.50
2009,03,25,16,23,8.50
2009,03,25,16,24,8.50
2009,03,25,16,25,8.50
2009,03,25,16,26,8.50
2009,03,25,16,27,8.60
2009,03,25,16,28,8.60
2009,03,25,16,29,8.60
2009,03,25,16,30,8.60
2009,03,25,16,31,8.60
2009,03,25,16,32,8.60
2009,03,25,16,33,8.60
2009,03,25,16,34,8.60
2009,03,25,16,35,8.60
2009,03,25,16,36,8.60
2009,03,25,16,37,8.70
2009,03,25,16,38,8.70
2009,03,25,16,39,8.80
2009,03,25,16,40,8.80
2009,03,25,16,41,8.80
2009,03,25,16,42,8.90
2009,03,25,16,43,8.90
2009,03,25,16,44,8.90
2009,03,25,16,45,8.90
2009,03,25,16,46,9.00
2009,03,25,16,47,9.00
2009,03,25,16,48,8.90
2009,03,25,16,49,9.00
2009,03,25,16,50,9.00
2009,03,25,16,51,9.00
2009,03,25,16,52,9.00
2009,03,25,16,53,8.90
2009,03,25,16,54,8.90
2009,03,25,16,55,8.90
2009,03,25,16,56,8.90
2009,03,25,16,57,8.90
2009,03,25,16,58,8.90
2009,03,25,16,59,8.90
2009,03,25,17,00,8.90
2009,03,25,17,01,9.00
2009,03,25,17,02,9.00
2009,03,25,17,03,9.00
2009,03,25,17,04,9.00
2009,03,25,17,05,8.90
2009,03,25,17,06,8.90
2009,03,25,17,07,8.90
2009,03,25,17,08,8.90
2009,03,25,17,09,8.90
2009,03,25,17,10,8.80
2009,03,25,17,11,8.80
2009,03,25,17,12,8.90
2009,03,25,17,13,8.90
2009,03,25,17,14,8.90
2009,03,25,17,15,8.90
2009,03,25,17,16,8.90
2009,03,25,17,17,9.00
2009,03,25,17,18,9.00
2009,03,25,17,19,9.10
2009,03,25,17,20,9.10
2009,03,25,17,21,9.10
2009,03,25,17,22,9.10
2009,03,25,17,23,9.10
2009,03,25,17,24,9.10
2009,03,25,17,25,9.10
2009,03,25,17,26,9.10
2009,03,25,17,27,9.10
2009,03,25,17,28,9.20
2009,03,25,17,29,9.20
2009,03,25,17,30,9.30
2009,03,25,17,31,9.30
2009,03,25,17,32,9.20
2009,03,25,17,33,9.20
2009,03,25,17,34,9.20
2009,03,25,17,35,9.10
2009,03,25,17,36,9.00
2009,03,25,17,37,9.00
2009,03,25,17,38,8.90
2009,03,25,17,39,8.90
2009,03,25,17,40,8.90
2009,03,25,17,41,8.90
2009,03,25,17,42,8.90
2009,03,25,17,43,8.90
2009,03,25,17,44,8.90
2009,03,25,17,45,8.80
2009,03,25,17,46,8.80
2009,03,25,17,47,8.70
2009,03,25,17,48,8.70
2009,03,25,17,49,8.70
2009,03,25,17,50,8.70
2009,03,25,17,51,8.70
2009,03,25,17,52,8.70
2009,03,25,17,53,8.70
2009,03,25,17,54,8.70
2009,03,25,17,55,8.70
2009,03,25,17,56,8.70
2009,03,25,17,57,8.70
2009,03,25,17,58,8.70
2009,03,25,17,59,8.70
2009,03,25,18,00,8.70
2009,03,25,18,01,8.70
2009,03,25,18,02,8.60
2009,03,25,18,03,8.60
2009,03,25,18,04,8.60
2009,03,25,18,05,8.60
2009,03,25,18,06,8.60
2009,03,25,18,07,8.60
2009,03,25,18,08,8.60
2009,03,25,18,09,8.60
2009,03,25,18,10,8.60
2009,03,25,18,11,8.60
2009,03,25,18,12,8.60
2009,03,25,18,13,8.60
2009,03,25,18,14,8.60
2009,03,25,18,15,8.60
2009,03,25,18,16,8.60
2009,03,25,18,17,8.60
2009,03,25,18,18,8.60
2009,03,25,18,19,8.60
2009,03,25,18,20,8.60
2009,03,25,18,21,8.60
2009,03,25,18,22,8.50
2009,03,25,18,23,8.50
2009,03,25,18,24,8.50
2009,03,25,18,25,8.50
2009,03,25,18,26,8.50
2009,03,25,18,27,8.50
2009,03,25,18,28,8.50
2009,03,25,18,29,8.50
2009,03,25,18,30,8.50
2009,03,25,18,31,8.50
2009,03,25,18,32,8.40
2009,03,25,18,33,8.50
2009,03,25,18,34,8.50
2009,03,25,18,35,8.50
2009,03,25,18,36,8.50
2009,03,25,18,37,8.50
2009,03,25,18,38,8.40
2009,03,25,18,39,8.40
2009,03,25,18,40,8.40
2009,03,25,18,41,8.40
2009,03,25,18,42,8.40
2009,03,25,18,43,8.40
2009,03,25,18,44,8.40
2009,03,25,18,45,8.40
2009,03,25,18,46,8.40
2009,03,25,18,47,8.40
2009,03,25,18,48,8.40
